Overview Statistics Trail Chart Weather Telemetry Raw packets
 

This is the latest recevied weather packets stored in our database for station/object Waldburg. If no packets are shown the sender has not sent any weather packets the latest 10 day(s).

<< 12 13 14 15 16 17 18 >>
Time Temp. Humidity Pressure Rain* Wind** Luminosity Snow
1788089530 24.44° C 57% 1014.3 hPa 0 mm - - -
1788087732 24.44° C 56% 1014.6 hPa 0 mm - - -
1788085930 23.89° C 59% 1014.9 hPa 0 mm - - -
1788084130 23.89° C 57% 1014.9 hPa 0 mm - - -
1788082330 23.33° C 57% 1015.2 hPa 0 mm - - -
1788080531 22.78° C 61% 1015.1 hPa 0 mm - - -
1788078729 21.67° C 67% 1015.3 hPa 0 mm - - -
1788076930 20.56° C 71% 1015.4 hPa 0 mm - - -
1788075130 18.89° C 79% 1015.4 hPa 0 mm - - -
1788073329 17.22° C 82% 1015.4 hPa 0 mm - - -
1788071530 16.67° C 84% 1015.4 hPa 0 mm - - -
1788069730 16.11° C 84% 1015.4 hPa 0 mm - - -
1788067930 16.11° C 84% 1015.4 hPa 0 mm - - -
1788066130 16.11° C 83% 1015.4 hPa 0 mm - - -
1788064329 16.11° C 83% 1015.2 hPa 0 mm - - -
1788062529 16.11° C 84% 1015 hPa 0 mm - - -
1788060729 16.11° C 83% 1014.9 hPa 0 mm - - -
1788058929 16.11° C 83% 1015 hPa 0 mm - - -
1788057129 16.11° C 83% 1015 hPa 0 mm - - -
1788055329 16.11° C 82% 1015.2 hPa 0 mm - - -
1788053529 16.11° C 83% 1015.2 hPa 0 mm - - -
1788051729 16.11° C 82% 1015.2 hPa 0 mm - - -
1788049931 16.11° C 80% 1015.2 hPa 0 mm - - -
1788048131 16.67° C 81% 1015.2 hPa 0 mm - - -
1788046331 16.67° C 80% 1015.2 hPa 0 mm - - -

* Rain since midnight (hover to see other rain measurements)
** Current wind speed in m/s (hover to see current wind gust speed)